ANA994 ROAH-RJTT

Flight info

Callsign ANA994
Flight time N/A
Altitude 35000
Route AMAMI Y574 SHIBK Y57 SUKBO Y571 BILLY Y21 AKSEL
Aircraft B763/M-SDE3FGHIM3RWXY/LB1

Departure

Time 2026-04-16 11:04
Airport Naha International Airport (ROAH)

Arrival

Time N/A
Airport Tokyo Haneda International Airport (RJTT)
Time Latitude Longitude Altitude Speed Heading
2026-04-16 10:47 26.20706 127.64917 35 ft 0 kts 28°
2026-04-16 10:56 26.20696 127.64911 34 ft 2 kts 27°
2026-04-16 10:56 26.20682 127.64903 34 ft 2 kts 27°
2026-04-16 10:57 26.20668 127.64897 34 ft 2 kts
2026-04-16 10:57 26.20653 127.64899 34 ft 2 kts 338°
2026-04-16 10:57 26.20641 127.64908 34 ft 2 kts 314°
2026-04-16 10:57 26.20633 127.64921 35 ft 2 kts 290°
2026-04-16 10:58 26.20630 127.64937 35 ft 2 kts 266°
2026-04-16 10:58 26.20631 127.64954 36 ft 2 kts 268°
2026-04-16 10:58 26.20632 127.64970 36 ft 2 kts 269°
2026-04-16 10:58 26.20632 127.64987 37 ft 1 kts 268°
2026-04-16 10:59 26.20632 127.64989 37 ft 0 kts 268°
2026-04-16 11:01 26.20632 127.64982 37 ft 3 kts 268°
2026-04-16 11:01 26.20630 127.64923 35 ft 11 kts 268°
2026-04-16 11:01 26.20634 127.64815 31 ft 15 kts 290°
2026-04-16 11:01 26.20728 127.64744 29 ft 18 kts 353°
2026-04-16 11:02 26.20856 127.64732 29 ft 14 kts 355°
2026-04-16 11:02 26.20904 127.64663 28 ft 12 kts 271°
2026-04-16 11:02 26.20897 127.64560 25 ft 13 kts 262°
2026-04-16 11:02 26.20836 127.64527 25 ft 9 kts 177°
2026-04-16 11:03 26.20814 127.64528 25 ft 3 kts 176°
2026-04-16 11:03 26.20776 127.64530 25 ft 8 kts 177°
2026-04-16 11:03 26.19847 127.64577 31 ft 136 kts 178°
2026-04-16 11:04 26.18710 127.64608 164 ft 185 kts 178°
2026-04-16 11:04 26.17479 127.64507 1078 ft 164 kts 182°
2026-04-16 11:04 26.16295 127.64540 1188 ft 194 kts 171°
2026-04-16 11:04 26.14862 127.64693 1458 ft 214 kts 173°
2026-04-16 11:05 26.13296 127.64811 1876 ft 241 kts 175°
2026-04-16 11:05 26.11546 127.64921 2513 ft 262 kts 176°
2026-04-16 11:05 26.09725 127.65022 3552 ft 266 kts 178°
2026-04-16 11:05 26.07849 127.65120 4471 ft 275 kts 178°
2026-04-16 11:06 26.05889 127.65217 5024 ft 293 kts 179°
2026-04-16 11:06 26.03883 127.65617 4985 ft 289 kts 156°
2026-04-16 11:06 26.02381 127.66904 5452 ft 264 kts 126°
2026-04-16 11:06 26.01603 127.68773 5539 ft 275 kts 98°
2026-04-16 11:07 26.01408 127.70935 6222 ft 287 kts 91°
2026-04-16 11:07 26.01381 127.73128 7270 ft 286 kts 79°
2026-04-16 11:07 26.02090 127.75200 8162 ft 286 kts 52°
2026-04-16 11:07 26.03302 127.76939 9100 ft 289 kts 49°
2026-04-16 11:08 26.04547 127.78707 9979 ft 295 kts 49°
2026-04-16 11:08 26.05860 127.80534 10539 ft 315 kts 48°